Time,TemperatureF,DewpointF,PressureIn,WindDirection,WindDirectionDegrees,WindSpeedMPH,WindSpeedGustMPH,Humidity,HourlyPrecipIn,Conditions,Clouds,dailyrainin,SoftwareType,DateUTC
2013-02-05 00:03:00,33.0,19.0,29.99,ENE,58,8.0,8.0,57,0.00,,,0.00,weatherlink.com 1.10,2013-02-05 05:03:00,
2013-02-05 00:19:00,33.0,19.0,29.98,NE,47,3.0,10.0,57,0.00,,,0.00,weatherlink.com 1.10,2013-02-05 05:19:00,
2013-02-05 00:34:00,33.2,19.0,29.98,NE,40,4.0,10.0,56,0.00,,,0.00,weatherlink.com 1.10,2013-02-05 05:34:00,
2013-02-05 00:49:00,32.9,19.0,29.97,NE,38,6.0,8.0,56,0.00,,,0.00,weatherlink.com 1.10,2013-02-05 05:49:00,
2013-02-05 01:04:00,32.9,18.0,29.97,NNE,30,6.0,9.0,55,0.00,,,0.00,weatherlink.com 1.10,2013-02-05 06:04:00,
2013-02-05 01:19:00,32.5,19.0,29.96,NNE,29,3.0,7.0,58,0.00,,,0.00,weatherlink.com 1.10,2013-02-05 06:19:00,
2013-02-05 01:34:00,33.2,19.0,29.96,NE,40,2.0,7.0,56,0.00,,,0.00,weatherlink.com 1.10,2013-02-05 06:34:00,
2013-02-05 01:49:00,33.4,19.0,29.96,WNW,292,3.0,7.0,55,0.00,,,0.00,weatherlink.com 1.10,2013-02-05 06:49:00,
2013-02-05 02:04:00,33.4,18.0,29.95,NNE,16,1.0,11.0,53,0.00,,,0.00,weatherlink.com 1.10,2013-02-05 07:04:00,
2013-02-05 02:19:00,33.4,17.0,29.94,ENE,68,0.0,10.0,52,0.00,,,0.00,weatherlink.com 1.10,2013-02-05 07:19:00,
2013-02-05 02:34:00,33.3,18.0,29.93,NNW,335,5.0,8.0,53,0.00,,,0.00,weatherlink.com 1.10,2013-02-05 07:34:00,
2013-02-05 02:49:00,33.4,19.0,29.93,West,270,2.0,6.0,57,0.00,,,0.00,weatherlink.com 1.10,2013-02-05 07:49:00,
2013-02-05 03:04:00,33.3,21.0,29.92,NNE,32,1.0,9.0,60,0.00,,,0.00,weatherlink.com 1.10,2013-02-05 08:04:00,
2013-02-05 03:19:00,32.8,21.0,29.92,North,355,2.0,7.0,61,0.00,,,0.00,weatherlink.com 1.10,2013-02-05 08:19:00,
2013-02-05 03:34:00,32.3,21.0,29.91,NE,51,1.0,11.0,63,0.00,,,0.00,weatherlink.com 1.10,2013-02-05 08:34:00,
2013-02-05 03:49:00,32.0,21.0,29.91,NW,315,2.0,5.0,64,0.00,,,0.00,weatherlink.com 1.10,2013-02-05 08:49:00,
2013-02-05 04:04:00,31.8,22.0,29.90,WSW,254,4.0,9.0,66,0.00,,,0.00,weatherlink.com 1.10,2013-02-05 09:04:00,
2013-02-05 04:19:00,31.1,20.0,29.91,NW,312,2.0,9.0,63,0.00,,,0.00,weatherlink.com 1.10,2013-02-05 09:19:00,
2013-02-05 04:34:00,30.8,20.0,29.91,WNW,300,5.0,7.0,64,0.00,,,0.00,weatherlink.com 1.10,2013-02-05 09:34:00,
2013-02-05 04:49:00,30.2,21.0,29.91,West,260,4.0,10.0,69,0.00,,,0.00,weatherlink.com 1.10,2013-02-05 09:49:00,
2013-02-05 05:04:00,29.5,22.0,29.91,NW,315,7.0,10.0,74,0.00,,,0.00,weatherlink.com 1.10,2013-02-05 10:04:00,
2013-02-05 05:19:00,28.9,22.0,29.91,NNW,348,4.0,8.0,76,0.00,,,0.00,weatherlink.com 1.10,2013-02-05 10:19:00,
2013-02-05 05:34:00,28.6,23.0,29.90,WNW,303,7.0,9.0,79,0.00,,,0.00,weatherlink.com 1.10,2013-02-05 10:34:00,
2013-02-05 05:49:00,29.0,24.0,29.89,WNW,291,1.0,8.0,80,0.00,,,0.00,weatherlink.com 1.10,2013-02-05 10:49:00,
2013-02-05 06:05:00,29.4,24.0,29.90,NW,315,4.0,9.0,79,0.00,,,0.00,weatherlink.com 1.10,2013-02-05 11:05:00,
2013-02-05 06:20:00,29.7,24.0,29.90,WNW,298,0.0,8.0,78,0.00,,,0.00,weatherlink.com 1.10,2013-02-05 11:20:00,
2013-02-05 06:34:00,29.6,24.0,29.90,West,277,0.0,6.0,78,0.00,,,0.00,weatherlink.com 1.10,2013-02-05 11:34:00,
2013-02-05 06:49:00,29.6,24.0,29.89,NW,315,1.0,11.0,78,0.00,,,0.00,weatherlink.com 1.10,2013-02-05 11:49:00,
2013-02-05 07:04:00,29.5,23.0,29.90,NNE,15,4.0,6.0,78,0.00,,,0.00,weatherlink.com 1.10,2013-02-05 12:04:00,
2013-02-05 07:19:00,29.3,24.0,29.91,NNW,333,2.0,5.0,79,0.00,,,0.00,weatherlink.com 1.10,2013-02-05 12:19:00,
2013-02-05 07:35:00,29.4,24.0,29.91,WNW,298,1.0,4.0,80,0.00,,,0.00,weatherlink.com 1.10,2013-02-05 12:35:00,
2013-02-05 07:49:00,29.6,24.0,29.91,NW,313,1.0,5.0,80,0.00,,,0.00,weatherlink.com 1.10,2013-02-05 12:49:00,
2013-02-05 08:04:00,29.8,24.0,29.92,NE,49,1.0,7.0,80,0.00,,,0.00,weatherlink.com 1.10,2013-02-05 13:04:00,
2013-02-05 08:19:00,29.8,24.0,29.92,NNW,331,3.0,4.0,80,0.00,,,0.00,weatherlink.com 1.10,2013-02-05 13:19:00,
2013-02-05 08:34:00,29.8,24.0,29.92,NNE,28,2.0,4.0,80,0.00,,,0.00,weatherlink.com 1.10,2013-02-05 13:34:00,
2013-02-05 08:50:00,30.0,25.0,29.92,NE,39,1.0,4.0,82,0.00,,,0.00,weatherlink.com 1.10,2013-02-05 13:50:00,
2013-02-05 09:05:00,30.3,26.0,29.92,ENE,66,1.0,6.0,85,0.00,,,0.00,weatherlink.com 1.10,2013-02-05 14:05:00,
2013-02-05 09:20:00,30.6,27.0,29.93,SE,133,0.0,6.0,87,0.00,,,0.00,weatherlink.com 1.10,2013-02-05 14:20:00,
2013-02-05 09:35:00,31.0,28.0,29.92,NE,49,2.0,9.0,89,0.00,,,0.00,weatherlink.com 1.10,2013-02-05 14:35:00,
2013-02-05 09:50:00,31.1,29.0,29.92,NE,54,1.0,7.0,90,0.00,,,0.00,weatherlink.com 1.10,2013-02-05 14:50:00,
2013-02-05 10:05:00,31.1,29.0,29.93,SE,125,1.0,7.0,91,0.00,,,0.00,weatherlink.com 1.10,2013-02-05 15:05:00,
2013-02-05 10:20:00,31.1,29.0,29.93,East,85,0.0,4.0,92,0.00,,,0.00,weatherlink.com 1.10,2013-02-05 15:20:00,
2013-02-05 10:35:00,30.7,28.0,29.93,NE,53,0.0,3.0,91,0.00,,,0.00,weatherlink.com 1.10,2013-02-05 15:35:00,
2013-02-05 10:50:00,30.8,29.0,29.93,WNW,294,0.0,4.0,91,0.00,,,0.00,weatherlink.com 1.10,2013-02-05 15:50:00,
2013-02-05 11:05:00,30.8,29.0,29.93,NW,304,0.0,3.0,92,0.00,,,0.00,weatherlink.com 1.10,2013-02-05 16:05:00,
2013-02-05 11:20:00,30.7,29.0,29.93,WNW,303,3.0,6.0,93,0.00,,,0.00,weatherlink.com 1.10,2013-02-05 16:20:00,
2013-02-05 11:35:00,30.8,29.0,29.93,WNW,302,2.0,7.0,94,0.00,,,0.00,weatherlink.com 1.10,2013-02-05 16:35:00,
2013-02-05 11:50:00,31.0,30.0,29.93,North,9,6.0,7.0,94,0.00,,,0.00,weatherlink.com 1.10,2013-02-05 16:50:00,
2013-02-05 12:05:00,31.1,30.0,29.93,NNW,348,3.0,8.0,94,0.00,,,0.00,weatherlink.com 1.10,2013-02-05 17:05:00,
2013-02-05 12:20:00,31.2,30.0,29.93,NNE,17,2.0,8.0,94,0.00,,,0.00,weatherlink.com 1.10,2013-02-05 17:20:00,
2013-02-05 12:35:00,31.1,30.0,29.92,East,96,2.0,11.0,95,0.00,,,0.00,weatherlink.com 1.10,2013-02-05 17:35:00,
2013-02-05 12:50:00,31.7,31.0,29.91,NNE,13,4.0,8.0,95,0.00,,,0.00,weatherlink.com 1.10,2013-02-05 17:50:00,
2013-02-05 13:05:00,33.5,31.0,29.91,NNW,334,3.0,7.0,91,0.00,,,0.00,weatherlink.com 1.10,2013-02-05 18:05:00,
2013-02-05 13:20:00,33.3,30.0,29.91,WNW,296,6.0,12.0,89,0.00,,,0.00,weatherlink.com 1.10,2013-02-05 18:20:00,
2013-02-05 13:35:00,33.3,30.0,29.90,NW,304,7.0,12.0,89,0.00,,,0.00,weatherlink.com 1.10,2013-02-05 18:35:00,
2013-02-05 13:50:00,34.2,31.0,29.90,North,355,5.0,11.0,88,0.00,,,0.00,weatherlink.com 1.10,2013-02-05 18:50:00,
2013-02-05 14:05:00,35.1,31.0,29.90,NW,316,4.0,9.0,85,0.00,,,0.00,weatherlink.com 1.10,2013-02-05 19:05:00,
2013-02-05 14:20:00,35.5,31.0,29.90,NNW,332,4.0,10.0,83,0.00,,,0.00,weatherlink.com 1.10,2013-02-05 19:20:00,
2013-02-05 14:35:00,36.0,30.0,29.90,NNW,344,4.0,8.0,80,0.00,,,0.00,weatherlink.com 1.10,2013-02-05 19:35:00,
2013-02-05 14:50:00,36.2,29.0,29.90,NNE,31,3.0,9.0,76,0.01,,,0.01,weatherlink.com 1.10,2013-02-05 19:50:00,
2013-02-05 15:05:00,36.6,28.0,29.91,NNW,329,3.0,11.0,71,0.01,,,0.01,weatherlink.com 1.10,2013-02-05 20:05:00,
2013-02-05 15:20:00,36.8,28.0,29.91,NW,306,2.0,12.0,71,0.01,,,0.01,weatherlink.com 1.10,2013-02-05 20:20:00,
2013-02-05 15:35:00,36.9,29.0,29.91,SW,225,4.0,8.0,72,0.02,,,0.02,weatherlink.com 1.10,2013-02-05 20:35:00,
2013-02-05 15:50:00,35.9,30.0,29.92,WSW,253,0.0,8.0,79,0.02,,,0.03,weatherlink.com 1.10,2013-02-05 20:50:00,
2013-02-05 16:05:00,35.2,30.0,29.92,West,261,2.0,4.0,82,0.02,,,0.03,weatherlink.com 1.10,2013-02-05 21:05:00,
2013-02-05 16:20:00,35.0,30.0,29.92,WNW,293,2.0,7.0,83,0.03,,,0.04,weatherlink.com 1.10,2013-02-05 21:20:00,
2013-02-05 16:35:00,34.6,30.0,29.93,NE,53,2.0,7.0,84,0.03,,,0.05,weatherlink.com 1.10,2013-02-05 21:35:00,
2013-02-05 16:50:00,33.9,30.0,29.93,WNW,284,1.0,7.0,86,0.02,,,0.05,weatherlink.com 1.10,2013-02-05 21:50:00,
2013-02-05 17:05:00,33.9,30.0,29.93,NNW,329,1.0,5.0,85,0.03,,,0.06,weatherlink.com 1.10,2013-02-05 22:05:00,
2013-02-05 17:20:00,34.1,29.0,29.92,WNW,289,8.0,9.0,82,0.03,,,0.07,weatherlink.com 1.10,2013-02-05 22:20:00,
2013-02-05 17:35:00,33.9,28.0,29.93,NW,306,2.0,8.0,80,0.02,,,0.07,weatherlink.com 1.10,2013-02-05 22:35:00,
2013-02-05 17:50:00,33.5,28.0,29.93,NNW,327,0.0,5.0,80,0.03,,,0.08,weatherlink.com 1.10,2013-02-05 22:50:00,
2013-02-05 18:05:00,33.2,28.0,29.93,NE,36,2.0,5.0,80,0.03,,,0.09,weatherlink.com 1.10,2013-02-05 23:05:00,
2013-02-05 18:20:00,32.7,27.0,29.93,NE,38,3.0,4.0,80,0.02,,,0.09,weatherlink.com 1.10,2013-02-05 23:20:00,
2013-02-05 18:35:00,32.1,27.0,29.94,NE,37,1.0,2.0,81,0.03,,,0.10,weatherlink.com 1.10,2013-02-05 23:35:00,
2013-02-05 19:05:00,32.9,26.0,29.95,North,355,1.0,5.0,75,0.02,,,0.11,weatherlink.com 1.10,2013-02-06 00:05:00,
2013-02-05 19:20:00,33.6,24.0,29.95,NNW,336,3.0,6.0,69,0.02,,,0.11,weatherlink.com 1.10,2013-02-06 00:20:00,
2013-02-05 19:35:00,34.4,24.0,29.95,NE,46,1.0,6.0,65,0.01,,,0.11,weatherlink.com 1.10,2013-02-06 00:35:00,
2013-02-05 19:50:00,34.4,23.0,29.96,WNW,303,2.0,6.0,63,0.01,,,0.11,weatherlink.com 1.10,2013-02-06 00:50:00,
2013-02-05 20:05:00,34.8,23.0,29.96,North,355,0.0,8.0,62,0.00,,,0.11,weatherlink.com 1.10,2013-02-06 01:05:00,
2013-02-05 20:20:00,34.8,23.0,29.97,NNW,340,3.0,5.0,63,0.01,,,0.12,weatherlink.com 1.10,2013-02-06 01:20:00,
2013-02-05 20:50:00,35.2,24.0,29.97,NNW,329,2.0,11.0,63,0.01,,,0.12,weatherlink.com 1.10,2013-02-06 01:50:00,
2013-02-05 21:06:00,35.1,24.0,29.97,NNE,32,6.0,7.0,64,0.01,,,0.12,weatherlink.com 1.10,2013-02-06 02:06:00,
2013-02-05 21:20:00,35.0,24.0,29.97,North,355,4.0,9.0,64,0.01,,,0.13,weatherlink.com 1.10,2013-02-06 02:20:00,
2013-02-05 21:35:00,35.1,24.0,29.97,NW,324,4.0,9.0,65,0.01,,,0.13,weatherlink.com 1.10,2013-02-06 02:35:00,
2013-02-05 21:51:00,35.2,24.0,29.97,NW,313,4.0,8.0,65,0.01,,,0.13,weatherlink.com 1.10,2013-02-06 02:51:00,
2013-02-05 22:06:00,35.0,25.0,29.97,WNW,298,4.0,13.0,68,0.02,,,0.14,weatherlink.com 1.10,2013-02-06 03:06:00,
2013-02-05 22:20:00,34.3,26.0,29.98,North,5,3.0,7.0,72,0.01,,,0.14,weatherlink.com 1.10,2013-02-06 03:20:00,
2013-02-05 22:35:00,34.2,26.0,29.98,WNW,286,3.0,11.0,73,0.01,,,0.14,weatherlink.com 1.10,2013-02-06 03:35:00,
2013-02-05 22:51:00,34.5,27.0,29.98,WSW,238,5.0,14.0,73,0.01,,,0.14,weatherlink.com 1.10,2013-02-06 03:51:00,
2013-02-05 23:05:00,34.4,27.0,29.98,NW,311,0.0,11.0,75,0.01,,,0.15,weatherlink.com 1.10,2013-02-06 04:05:00,
2013-02-05 23:20:00,34.2,28.0,29.97,East,89,8.0,12.0,78,0.01,,,0.15,weatherlink.com 1.10,2013-02-06 04:20:00,
2013-02-05 23:35:00,34.2,29.0,29.97,NNW,346,3.0,14.0,80,0.01,,,0.15,weatherlink.com 1.10,2013-02-06 04:35:00,
2013-02-05 23:50:00,34.2,29.0,29.97,NW,312,1.0,12.0,81,0.01,,,0.15,weatherlink.com 1.10,2013-02-06 04:50:00,